[[{"header":{"parameterUnit":"m.s-1","parameterCategory":2,"la1":30.2992,"la2":30.254,"lo1":-89.0895,"lo2":-89.0443,"dy":0.0025,"dx":0.0025,"nx":19,"ny":19,"refTime":"2026-05-01T09:00:00:Z","depth":"0","parameterNumber":2,"parameterNumberName":"U-component_of_CURRENTS"},"data":[0,0,0,-0.2991,-0.2995,-0.3136,-0.3136,-0.3189,-0.3189,0,0,0,0,0,0,0,0,0,0,0,-0.2916,-0.2917,-0.2991,-0.2995,-0.3136,-0.3136,-0.3189,-0.3189,0,0,0,0,0,0,0,0,0,0,0,-0.2915,-0.2916,-0.2917,-0.2996,-0.3136,-0.3136,-0.3189,-0.3109,0,0,0,0,0,0,0,0,0,0,-0.2985,-0.2908,-0.2916,-0.2917,-0.2997,-0.3136,-0.3137,-0.3106,-0.3114,-0.3095,0,-0.3118,0,-0.3174,-0.3192,-0.3192,0,0,0,-0.2974,-0.2901,-0.2983,-0.2918,-0.2998,-0.3136,-0.3066,-0.3111,-0.312,-0.3104,-0.312,-0.3124,-0.3175,-0.3192,-0.3192,-0.3105,-0.3104,0,0,-0.2966,-0.2898,-0.2977,-0.2988,-0.3036,-0.3062,-0.3071,-0.3117,-0.3097,-0.312,-0.3126,-0.3176,-0.3192,-0.3192,-0.3107,-0.3105,0,0,0,-0.2958,-0.2892,-0.2973,-0.2984,-0.3031,-0.3067,-0.3077,-0.3094,-0.3134,-0.3127,-0.3176,-0.3192,-0.3193,-0.3108,-0.3106,-0.3008,0,0,0,-0.2952,-0.2891,-0.2969,-0.2924,-0.3031,-0.3075,-0.3052,-0.313,-0.3139,-0.3176,-0.3192,-0.3193,-0.3109,-0.3107,-0.3013,-0.2969,0,0,0,-0.2909,-0.2885,-0.2912,-0.2921,-0.3001,-0.3077,-0.3117,-0.3133,-0.3169,-0.3192,-0.3193,-0.311,-0.3107,-0.3018,-0.2977,-0.2915,0,0,0,-0.2821,-0.2824,-0.2909,-0.2934,-0.3,-0.3076,-0.3118,-0.3157,-0.3173,-0.3192,-0.3109,-0.3106,-0.302,-0.2982,-0.292,-0.2834,-0.2804,0,0,-0.2778,-0.2816,-0.2841,-0.2923,-0.2974,-0.3055,-0.3035,-0.3079,-0.3112,-0.3085,-0.3084,-0.3011,-0.2978,-0.2916,-0.2665,-0.264,0,0,0,-0.28,-0.2796,-0.2837,-0.2886,-0.2981,-0.2988,-0.3044,-0.3024,-0.2989,-0.3116,-0.2979,-0.296,-0.2925,-0.2883,-0.2862,-0.2821,-0.3093,-0.3093,-0.3093,-0.2604,-0.2702,-0.2708,-0.2812,-0.2848,-0.2914,-0.2893,-0.2861,-0.2922,-0.2861,-0.2856,-0.2708,-0.2659,-0.2643,-0.2601,-0.283,-0.283,-0.2829,-0.2829,-0.2513,-0.2532,-0.2592,-0.2636,-0.2689,-0.2679,-0.269,-0.2711,-0.2639,-0.2703,-0.2674,-0.2751,-0.2614,-0.2577,-0.2822,-0.2823,-0.2824,-0.2825,-0.2825,-0.2402,-0.2422,-0.2451,-0.2483,-0.2472,-0.2545,-0.2493,-0.2527,-0.2534,-0.2508,-0.2491,-0.2493,-0.2484,-0.2507,-0.2506,-0.2505,-0.2505,-0.2505,-0.2504,-0.2297,-0.2322,-0.2317,-0.2347,-0.2342,-0.2353,-0.239,-0.2373,-0.2355,-0.2362,-0.2362,-0.2399,-0.2611,-0.2651,-0.2496,-0.2498,-0.2499,-0.25,-0.25,-0.222,-0.2244,-0.2216,-0.2205,-0.2187,-0.2109,-0.2193,-0.2158,-0.2158,-0.212,-0.2129,-0.2284,-0.2311,-0.2328,-0.236,-0.214,-0.214,-0.214,-0.214,-0.2172,-0.2183,-0.2124,-0.2059,-0.2004,-0.1983,-0.187,-0.1886,-0.1912,-0.189,-0.1957,-0.2001,-0.2018,-0.2033,-0.2057,-0.2086,-0.1801,-0.1801,-0.1801,-0.2135,-0.212,-0.2036,-0.1975,-0.1894,-0.1819,-0.1667,-0.1649,-0.1726,-0.1788,-0.1908,-0.1923,-0.1997,-0.2027,-0.2067,-0.2103,-0.216,0,0]},{"header":{"parameterUnit":"m.s-1","parameterCategory":2,"la1":30.2992,"la2":30.254,"lo1":-89.0895,"lo2":-89.0443,"dy":0.0025,"dx":0.0025,"nx":19,"ny":19,"refTime":"2026-05-01T09:00:00:Z","depth":"0","parameterNumber":3,"parameterNumberName":"V-component_of_CURRENTS"},"data":[0,0,0,-0.0792,-0.0791,-0.0702,-0.0701,-0.0514,-0.0513,0,0,0,0,0,0,0,0,0,0,0,-0.0822,-0.0822,-0.0792,-0.0791,-0.0702,-0.0701,-0.0515,-0.0513,0,0,0,0,0,0,0,0,0,0,0,-0.0822,-0.0822,-0.0822,-0.0791,-0.0702,-0.0701,-0.0515,-0.0592,0,0,0,0,0,0,0,0,0,0,-0.0683,-0.0718,-0.0822,-0.0822,-0.079,-0.0703,-0.0701,-0.0596,-0.0587,-0.0544,0,-0.0557,0,-0.0545,-0.0502,-0.0501,0,0,0,-0.0756,-0.0726,-0.0725,-0.0822,-0.079,-0.0703,-0.0732,-0.0591,-0.0581,-0.0532,-0.0554,-0.0547,-0.0541,-0.0501,-0.05,-0.0387,-0.0387,0,0,-0.0761,-0.0772,-0.0733,-0.072,-0.0799,-0.0735,-0.073,-0.0585,-0.0573,-0.0553,-0.0543,-0.0538,-0.05,-0.0499,-0.0387,-0.0387,0,0,0,-0.0798,-0.0775,-0.0778,-0.0728,-0.0725,-0.0734,-0.0727,-0.0578,-0.0588,-0.0541,-0.0536,-0.0499,-0.0497,-0.0387,-0.0387,-0.047,0,0,0,-0.0799,-0.08,-0.0781,-0.0782,-0.073,-0.0657,-0.0724,-0.0597,-0.0581,-0.0537,-0.0499,-0.0495,-0.0387,-0.0387,-0.0467,-0.0501,0,0,0,-0.082,-0.0801,-0.0807,-0.0784,-0.0764,-0.066,-0.0658,-0.0593,-0.0579,-0.0501,-0.0495,-0.0387,-0.0387,-0.0466,-0.0498,-0.0477,0,0,0,-0.081,-0.0842,-0.0807,-0.0838,-0.0766,-0.0746,-0.0659,-0.0612,-0.0556,-0.0498,-0.0387,-0.0387,-0.0465,-0.0495,-0.0476,-0.0408,-0.041,0,0,-0.0852,-0.0846,-0.0869,-0.0838,-0.0858,-0.0753,-0.0723,-0.0612,-0.0535,-0.0423,-0.0421,-0.0468,-0.0497,-0.0477,-0.0408,-0.0409,0,0,0,-0.0884,-0.09,-0.0901,-0.0902,-0.0871,-0.0798,-0.0693,-0.0631,-0.0524,-0.0508,-0.0444,-0.046,-0.0444,-0.04,-0.0401,-0.0203,-0.0387,-0.0387,-0.0387,-0.0928,-0.0933,-0.0961,-0.0948,-0.0919,-0.0817,-0.0749,-0.0634,-0.0566,-0.0529,-0.051,-0.0528,-0.0482,-0.0482,-0.028,-0.049,-0.049,-0.0491,-0.0491,-0.1004,-0.1035,-0.1001,-0.1034,-0.0962,-0.0916,-0.077,-0.0707,-0.0595,-0.0549,-0.053,-0.0468,-0.0488,-0.0272,-0.0496,-0.0495,-0.0494,-0.0494,-0.0493,-0.1059,-0.1074,-0.1085,-0.1106,-0.1062,-0.097,-0.0903,-0.0789,-0.0666,-0.0646,-0.0541,-0.0538,-0.0358,-0.0624,-0.0624,-0.0624,-0.0624,-0.0624,-0.0624,-0.1122,-0.1129,-0.118,-0.1177,-0.1169,-0.1119,-0.0972,-0.0887,-0.0715,-0.0611,-0.0609,-0.0327,-0.0567,-0.0574,-0.0625,-0.0625,-0.0625,-0.0625,-0.0625,-0.1222,-0.123,-0.1296,-0.1313,-0.128,-0.1219,-0.1097,-0.0873,-0.0759,-0.0659,-0.0296,-0.0565,-0.052,-0.0517,-0.052,-0.0554,-0.0555,-0.0554,-0.0554,-0.1296,-0.1304,-0.1385,-0.1397,-0.1372,-0.1257,-0.11,-0.0844,-0.0438,-0.021,-0.0156,-0.0095,-0.0107,-0.0033,-0.004,-0.0032,0.0059,0.006,0.0061,-0.1373,-0.1381,-0.1437,-0.1435,-0.1395,-0.1278,-0.109,-0.0742,-0.0153,0.0104,0.0106,0.008,0.0187,0.0153,0.0281,0.0255,0.0272,0,0]}],[{"header":{"parameterUnit":"m.s-1","parameterCategory":2,"la1":30.2992,"la2":30.254,"lo1":-89.0895,"lo2":-89.0443,"dy":0.0025,"dx":0.0025,"nx":19,"ny":19,"refTime":"2026-05-01T09:00:00:Z","depth":"2","parameterNumber":2,"parameterNumberName":"U-component_of_CURRENTS"},"data":[0,0,0,-0.2644,-0.2647,-0.2814,-0.2815,-0.2942,-0.2943,0,0,0,0,0,0,0,0,0,0,0,-0.2592,-0.2593,-0.2644,-0.2647,-0.2814,-0.2815,-0.2942,-0.2943,0,0,0,0,0,0,0,0,0,0,0,-0.2592,-0.2593,-0.2594,-0.2648,-0.2814,-0.2815,-0.2942,-0.2844,0,0,0,0,0,0,0,0,0,0,-0.2696,-0.263,-0.2592,-0.2594,-0.2648,-0.2814,-0.2815,-0.2841,-0.285,-0.2833,0,-0.2849,0,-0.2882,-0.2947,-0.2947,0,0,0,-0.2675,-0.2622,-0.268,-0.2594,-0.265,-0.2813,-0.2747,-0.2847,-0.2857,-0.2845,-0.2852,-0.2857,-0.2884,-0.2947,-0.2947,-0.2888,-0.2887,0,0,-0.2666,-0.2613,-0.2673,-0.2686,-0.2678,-0.2741,-0.2751,-0.2855,-0.2848,-0.2852,-0.286,-0.2886,-0.2947,-0.2948,-0.2889,-0.2888,0,0,0,-0.2621,-0.2606,-0.2664,-0.268,-0.2708,-0.2745,-0.2757,-0.2845,-0.2868,-0.2862,-0.2887,-0.2948,-0.2948,-0.289,-0.2888,-0.2796,0,0,0,-0.2616,-0.2578,-0.2659,-0.2628,-0.2706,-0.2784,-0.2744,-0.2861,-0.2874,-0.2887,-0.2948,-0.2949,-0.2891,-0.2889,-0.2802,-0.2772,0,0,0,-0.2587,-0.2574,-0.2593,-0.2625,-0.2686,-0.2784,-0.2815,-0.2866,-0.2887,-0.2947,-0.2949,-0.2892,-0.289,-0.2806,-0.2779,-0.273,0,0,0,-0.253,-0.2534,-0.2591,-0.261,-0.2684,-0.276,-0.2815,-0.288,-0.2929,-0.2948,-0.2891,-0.2889,-0.2808,-0.2784,-0.2734,-0.2636,-0.2607,0,0,-0.2504,-0.2529,-0.2546,-0.2602,-0.2656,-0.274,-0.2745,-0.2835,-0.2873,-0.2859,-0.286,-0.28,-0.278,-0.2731,-0.2485,-0.2462,0,0,0,-0.2519,-0.2517,-0.2556,-0.2592,-0.2674,-0.2702,-0.2777,-0.2771,-0.2769,-0.2884,-0.2772,-0.2762,-0.2735,-0.2683,-0.2664,-0.2876,-0.2877,-0.2877,-0.2877,-0.2391,-0.2455,-0.247,-0.2543,-0.2583,-0.2654,-0.266,-0.2646,-0.2706,-0.2658,-0.2666,-0.2539,-0.248,-0.2465,-0.2638,-0.2637,-0.2637,-0.2637,-0.2636,-0.2325,-0.2329,-0.2381,-0.2419,-0.2466,-0.247,-0.249,-0.2515,-0.2469,-0.2525,-0.2503,-0.2562,-0.2438,-0.2629,-0.263,-0.2631,-0.2632,-0.2633,-0.2633,-0.2237,-0.2244,-0.2273,-0.2297,-0.2302,-0.237,-0.2336,-0.2373,-0.2383,-0.2364,-0.234,-0.2341,-0.2509,-0.2366,-0.2366,-0.2365,-0.2365,-0.2365,-0.2364,-0.214,-0.2165,-0.2161,-0.2192,-0.2194,-0.2213,-0.2259,-0.2248,-0.2229,-0.223,-0.2229,-0.2448,-0.2457,-0.2493,-0.2358,-0.2359,-0.236,-0.2361,-0.2361,-0.2052,-0.2079,-0.2056,-0.2054,-0.2053,-0.199,-0.208,-0.2046,-0.2052,-0.2009,-0.2146,-0.2153,-0.218,-0.2196,-0.2224,-0.2029,-0.2029,-0.2029,-0.2029,-0.1993,-0.2006,-0.1958,-0.1914,-0.188,-0.1873,-0.1753,-0.173,-0.1794,-0.1787,-0.1798,-0.182,-0.1839,-0.1851,-0.1875,-0.1899,-0.1618,-0.1617,-0.1617,-0.1945,-0.1937,-0.1866,-0.183,-0.1779,-0.1715,-0.1539,-0.1396,-0.1431,-0.1601,-0.1735,-0.1999,-0.2064,-0.2081,-0.2133,-0.2157,-0.221,0,0]},{"header":{"parameterUnit":"m.s-1","parameterCategory":2,"la1":30.2992,"la2":30.254,"lo1":-89.0895,"lo2":-89.0443,"dy":0.0025,"dx":0.0025,"nx":19,"ny":19,"refTime":"2026-05-01T09:00:00:Z","depth":"2","parameterNumber":3,"parameterNumberName":"V-component_of_CURRENTS"},"data":[0,0,0,-0.0584,-0.0583,-0.0512,-0.0511,-0.0359,-0.0358,0,0,0,0,0,0,0,0,0,0,0,-0.062,-0.0621,-0.0585,-0.0583,-0.0512,-0.0511,-0.036,-0.0358,0,0,0,0,0,0,0,0,0,0,0,-0.062,-0.0621,-0.0621,-0.0583,-0.0512,-0.0511,-0.036,-0.0426,0,0,0,0,0,0,0,0,0,0,-0.0502,-0.0541,-0.062,-0.0621,-0.0583,-0.0512,-0.0511,-0.043,-0.0422,-0.0379,0,-0.0386,0,-0.0367,-0.0348,-0.0347,0,0,0,-0.057,-0.0548,-0.0536,-0.0621,-0.0582,-0.0512,-0.054,-0.0426,-0.0417,-0.0368,-0.0384,-0.0378,-0.0365,-0.0347,-0.0346,-0.0239,-0.0239,0,0,-0.0574,-0.0591,-0.0543,-0.0531,-0.0586,-0.0543,-0.0538,-0.0421,-0.0414,-0.0383,-0.0375,-0.0362,-0.0346,-0.0344,-0.0239,-0.0239,0,0,0,-0.0594,-0.0594,-0.0586,-0.0538,-0.0529,-0.0541,-0.0536,-0.042,-0.042,-0.0373,-0.0361,-0.0345,-0.0343,-0.0239,-0.0239,-0.032,0,0,0,-0.0596,-0.0607,-0.0589,-0.0595,-0.0532,-0.0479,-0.0538,-0.0429,-0.0415,-0.0361,-0.0345,-0.0341,-0.0239,-0.0239,-0.0318,-0.0352,0,0,0,-0.062,-0.0608,-0.061,-0.0597,-0.0571,-0.0481,-0.0474,-0.0426,-0.0407,-0.0347,-0.0341,-0.0239,-0.0239,-0.0316,-0.0348,-0.0323,0,0,0,-0.0625,-0.0655,-0.061,-0.0638,-0.0573,-0.0553,-0.0475,-0.0441,-0.04,-0.0344,-0.0239,-0.0239,-0.0316,-0.0346,-0.0322,-0.0256,-0.0257,0,0,-0.0671,-0.0661,-0.0679,-0.0638,-0.0657,-0.0561,-0.054,-0.0451,-0.0378,-0.027,-0.0268,-0.0319,-0.0348,-0.0323,-0.0254,-0.0255,0,0,0,-0.07,-0.0715,-0.0715,-0.0709,-0.0673,-0.0612,-0.052,-0.0462,-0.0369,-0.0354,-0.0295,-0.031,-0.0292,-0.0248,-0.0249,-0.0238,-0.0238,-0.0238,-0.0238,-0.0769,-0.0759,-0.0788,-0.0763,-0.0735,-0.0637,-0.0579,-0.0471,-0.0408,-0.0375,-0.0359,-0.0373,-0.0329,-0.0329,-0.0339,-0.0339,-0.034,-0.034,-0.034,-0.0851,-0.087,-0.0835,-0.0863,-0.0788,-0.0749,-0.0604,-0.0544,-0.0436,-0.0396,-0.0375,-0.0316,-0.0334,-0.0346,-0.0345,-0.0344,-0.0343,-0.0343,-0.0343,-0.0908,-0.0915,-0.0927,-0.094,-0.0901,-0.081,-0.074,-0.0629,-0.0508,-0.0486,-0.0383,-0.038,-0.0413,-0.0465,-0.0465,-0.0465,-0.0465,-0.0465,-0.0465,-0.0962,-0.097,-0.1018,-0.1016,-0.101,-0.096,-0.0812,-0.0722,-0.0551,-0.0452,-0.045,-0.0414,-0.041,-0.0417,-0.0466,-0.0466,-0.0466,-0.0466,-0.0466,-0.1039,-0.1049,-0.1112,-0.1131,-0.1106,-0.1048,-0.0926,-0.07,-0.0585,-0.0485,-0.0403,-0.0404,-0.0358,-0.0355,-0.0359,-0.039,-0.039,-0.039,-0.039,-0.1091,-0.1101,-0.1176,-0.1196,-0.1179,-0.1077,-0.0911,-0.0653,-0.0431,-0.031,-0.0314,-0.0288,-0.0293,-0.0241,-0.0241,-0.0241,-0.0242,-0.0241,-0.0241,-0.1143,-0.1156,-0.1207,-0.1222,-0.1197,-0.1088,-0.0893,-0.055,-0.0244,-0.0238,-0.031,-0.0375,-0.0346,-0.035,-0.0274,-0.0273,-0.0275,0,0]}],[{"header":{"parameterUnit":"m.s-1","parameterCategory":2,"la1":30.2992,"la2":30.254,"lo1":-89.0895,"lo2":-89.0443,"dy":0.0025,"dx":0.0025,"nx":19,"ny":19,"refTime":"2026-05-01T09:00:00:Z","depth":"4","parameterNumber":2,"parameterNumberName":"U-component_of_CURRENTS"},"data":[0,0,0,-0.1621,-0.1622,-0.1683,-0.1684,-0.1793,-0.1793,0,0,0,0,0,0,0,0,0,0,0,-0.1625,-0.1625,-0.1621,-0.1622,-0.1683,-0.1684,-0.1793,-0.1793,0,0,0,0,0,0,0,0,0,0,0,-0.1625,-0.1625,-0.1625,-0.1622,-0.1683,-0.1684,-0.1792,-0.1746,0,0,0,0,0,0,0,0,0,0,-0.1686,-0.1694,-0.1625,-0.1625,-0.1622,-0.1683,-0.1684,-0.1744,-0.1749,-0.1764,0,-0.177,0,-0.176,-0.1798,-0.1799,0,0,0,-0.1654,-0.169,-0.1675,-0.1625,-0.1622,-0.1682,-0.1664,-0.1747,-0.1753,-0.177,-0.1772,-0.1775,-0.1762,-0.1799,-0.1799,-0.1826,-0.1825,0,0,-0.165,-0.1668,-0.1671,-0.1678,-0.1634,-0.1662,-0.1666,-0.175,-0.1774,-0.1772,-0.1777,-0.1764,-0.1799,-0.18,-0.1826,-0.1825,0,0,0,-0.1619,-0.1666,-0.1651,-0.1675,-0.167,-0.1663,-0.1668,-0.1772,-0.1757,-0.1778,-0.1765,-0.18,-0.1801,-0.1826,-0.1826,-0.1894,0,0,0,-0.1619,-0.1645,-0.1649,-0.1665,-0.1668,-0.172,-0.1687,-0.1753,-0.176,-0.1764,-0.18,-0.1802,-0.1826,-0.1826,-0.1893,-0.1903,0,0,0,-0.1622,-0.1646,-0.1644,-0.1665,-0.167,-0.1718,-0.1712,-0.1755,-0.1751,-0.1799,-0.1802,-0.1827,-0.1826,-0.1892,-0.1901,-0.1885,0,0,0,-0.165,-0.1657,-0.1646,-0.1661,-0.1669,-0.1686,-0.1712,-0.1765,-0.181,-0.18,-0.1826,-0.1826,-0.1892,-0.19,-0.1885,-0.1667,0,0,0,-0.1665,-0.1661,-0.1665,-0.1654,-0.1658,-0.168,-0.1724,-0.1801,-0.1797,-0.1807,-0.1808,-0.1893,-0.1901,-0.1885,-0.1629,0,0,0,0,-0.1673,-0.1677,-0.1675,-0.1684,-0.1686,-0.1725,-0.1775,-0.1794,-0.1839,-0.181,-0.186,-0.1861,-0.185,-0.1719,-0.1822,-0.1823,-0.1823,-0.1823,-0.1823,-0.1682,-0.1686,-0.17,-0.1707,-0.1733,-0.1775,-0.1814,-0.1842,-0.1849,-0.1868,-0.1894,-0.1894,-0.1757,-0.1876,-0.1876,-0.1877,-0.1877,-0.1877,-0.1877,-0.1663,-0.1646,-0.1711,-0.1729,-0.1772,-0.1822,-0.1868,-0.1894,-0.1913,-0.1911,-0.1897,-0.1772,-0.1883,-0.1882,-0.1881,-0.188,-0.188,-0.1879,-0.1879,-0.1602,-0.1599,-0.1651,-0.1703,-0.1784,-0.1844,-0.1877,-0.1931,-0.1951,-0.1966,-0.1786,-0.1913,-0.1932,-0.1956,-0.1956,-0.1956,-0.1956,-0.1956,-0.1956,-0.1491,-0.1548,-0.1568,-0.1659,-0.1709,-0.1778,-0.1874,-0.1875,-0.1919,-0.1807,-0.197,-0.1919,-0.1916,-0.1933,-0.1956,-0.1956,-0.1956,-0.1956,-0.1956,-0.1365,-0.14,-0.1424,-0.1473,-0.1584,-0.1627,-0.1757,-0.1722,-0.17,-0.1636,-0.1706,-0.1718,-0.1661,-0.1664,-0.1671,-0.1617,-0.1614,-0.1611,0,-0.125,-0.1277,-0.1287,-0.1337,-0.1381,-0.1521,-0.145,-0.1491,-0.1522,-0.1475,-0.1704,-0.1786,-0.1792,-0.1732,-0.173,-0.1737,0,0,0,-0.1151,-0.1178,-0.115,-0.1232,-0.1289,-0.1324,-0.1424,-0.1371,-0.1529,-0.1443,-0.1542,-0.156,-0.1814,-0.1955,-0.1896,-0.1893,-0.1916,0,0]},{"header":{"parameterUnit":"m.s-1","parameterCategory":2,"la1":30.2992,"la2":30.254,"lo1":-89.0895,"lo2":-89.0443,"dy":0.0025,"dx":0.0025,"nx":19,"ny":19,"refTime":"2026-05-01T09:00:00:Z","depth":"4","parameterNumber":3,"parameterNumberName":"V-component_of_CURRENTS"},"data":[0,0,0,-0.0309,-0.0308,-0.0266,-0.0266,-0.0187,-0.0187,0,0,0,0,0,0,0,0,0,0,0,-0.0333,-0.0333,-0.0309,-0.0308,-0.0266,-0.0266,-0.0187,-0.0187,0,0,0,0,0,0,0,0,0,0,0,-0.0333,-0.0333,-0.0333,-0.0308,-0.0266,-0.0266,-0.0187,-0.0224,0,0,0,0,0,0,0,0,0,0,-0.0267,-0.0301,-0.0333,-0.0333,-0.0308,-0.0266,-0.0266,-0.0225,-0.0221,-0.0202,0,-0.0208,0,-0.0194,-0.0181,-0.0181,0,0,0,-0.03,-0.0304,-0.0287,-0.0333,-0.0308,-0.0266,-0.0283,-0.0223,-0.0219,-0.0196,-0.0207,-0.0204,-0.0193,-0.0181,-0.0181,-0.0107,-0.0107,0,0,-0.0303,-0.0325,-0.0291,-0.0285,-0.0313,-0.0284,-0.0282,-0.0221,-0.0225,-0.0207,-0.0202,-0.0192,-0.018,-0.018,-0.0107,-0.0107,0,0,0,-0.0315,-0.0327,-0.0312,-0.0288,-0.0282,-0.0283,-0.028,-0.0228,-0.0222,-0.0201,-0.0191,-0.018,-0.0179,-0.0108,-0.0107,-0.0175,0,0,0,-0.0316,-0.0334,-0.0313,-0.0326,-0.0284,-0.0259,-0.0289,-0.0227,-0.0219,-0.0191,-0.018,-0.0178,-0.0108,-0.0108,-0.0174,-0.021,0,0,0,-0.0332,-0.0335,-0.0335,-0.0327,-0.0311,-0.026,-0.025,-0.0225,-0.0213,-0.0181,-0.0178,-0.0108,-0.0108,-0.0173,-0.0207,-0.0167,0,0,0,-0.0349,-0.0374,-0.0336,-0.0359,-0.0311,-0.0299,-0.025,-0.0236,-0.0216,-0.018,-0.0108,-0.0107,-0.0173,-0.0205,-0.0167,-0.0161,0,0,0,-0.0391,-0.038,-0.0392,-0.0357,-0.0367,-0.0303,-0.0295,-0.0247,-0.0194,-0.0126,-0.0124,-0.0175,-0.0207,-0.0167,-0.0127,0,0,0,0,-0.0412,-0.0427,-0.0421,-0.0418,-0.0386,-0.0348,-0.0294,-0.025,-0.0186,-0.0179,-0.0144,-0.0161,-0.0135,-0.0127,-0.0105,-0.0105,-0.0105,-0.0105,-0.0105,-0.0489,-0.0472,-0.0496,-0.0469,-0.0452,-0.0378,-0.0335,-0.0258,-0.0216,-0.0186,-0.0194,-0.0182,-0.0177,-0.0163,-0.0164,-0.0164,-0.0164,-0.0164,-0.0165,-0.0557,-0.056,-0.0548,-0.057,-0.0514,-0.0496,-0.0375,-0.0325,-0.0233,-0.021,-0.018,-0.0173,-0.017,-0.0169,-0.0168,-0.0168,-0.0167,-0.0167,-0.0167,-0.0592,-0.0589,-0.0619,-0.0638,-0.0629,-0.056,-0.0497,-0.0407,-0.0298,-0.0275,-0.0211,-0.0202,-0.0219,-0.0246,-0.0246,-0.0246,-0.0246,-0.0246,-0.0246,-0.0597,-0.0624,-0.0663,-0.0693,-0.0707,-0.0679,-0.0561,-0.0475,-0.0358,-0.0277,-0.0284,-0.0208,-0.0206,-0.0221,-0.0246,-0.0246,-0.0246,-0.0246,-0.0246,-0.0597,-0.0614,-0.0672,-0.0708,-0.0739,-0.0719,-0.064,-0.0456,-0.0354,-0.0259,-0.0245,-0.0245,-0.0207,-0.0204,-0.0218,-0.0243,-0.0243,-0.0243,0,-0.0572,-0.0593,-0.0651,-0.0705,-0.0726,-0.0718,-0.0588,-0.0477,-0.0333,-0.0337,-0.0347,-0.034,-0.0336,-0.0303,-0.0299,-0.032,0,0,0,-0.0545,-0.0573,-0.0604,-0.068,-0.0715,-0.0606,-0.0543,-0.0472,-0.0384,-0.0264,-0.0243,-0.0243,-0.0272,-0.0246,-0.0186,-0.0183,-0.0203,0,0]}]]